Regional Weather Roundup
Issued by NWS Cleveland, OH

Home | Current Version | Previous Version | Graphics & Text | Print | Product List | Glossary On
Versions: 1 2 3 4 5 6 7 8 9 10 11 12 13 14 15 16 17 18 19 20 21 22 23 24 25 26 27 28 29 30 31 32 33 34 35 36 37 38 39 40 41 42 43 44 45 46 47 48 49 50
000
ASUS41 KCLE 290412
RWRCLE
OHIO REGIONAL WEATHER ROUNDUP
NATIONAL WEATHER SERVICE WILMINGTON, OH
1200 AM EDT FRI JUL 29 2016

NOTE: "FAIR" INDICATES FEW OR NO CLOUDS BELOW 12,000 FEET WITH NO
SIGNIFICANT WEATHER AND/OR OBSTRUCTIONS TO VISIBILITY.

OHZ001>008-015>018-024>027-034-035-043-044-290500-
   NORTHWEST OHIO

CITY           SKY/WX    TMP DP  RH WIND       PRES   REMARKS
DEFIANCE       FAIR      75  65  70 NE5       29.91S
FINDLAY        FAIR      69  63  81 SE3       29.90F
TOLEDO EXPRESS MOCLDY    72  67  84 NE3       29.91S
TOLEDO EXEC    FAIR      76  71  85 NE6       29.92R
LIMA           FAIR      69  67  93 E5        29.91F
$$

OHZ009>014-019>023-028>033-038-089-290500-
   NORTHEAST OHIO

CITY           SKY/WX    TMP DP  RH WIND       PRES   REMARKS
CLE-HOPKINS    FAIR      76  66  71 N3        29.92S
CLE-LAKEFRONT  FAIR      77  68  73 E5        29.89S
CUY CO. ARPT   NOT AVBL
LORAIN-ELYRIA  FAIR      65  61  87 CALM      29.91S
ASHTABULA      FAIR      69  68  96 SE5       29.92S
AKRON-CANTON   FAIR      70  66  87 SW5       29.93R
WOOSTER        FOG       64  63  96 CALM      29.93S VSB 1/4
MANSFIELD      FAIR      70  63  78 S3        29.94R
YOUNGSTOWN     MOCLDY    68  65  90 CALM      29.93S
$$

OHZ042-051>053-060>062-070>072-077>081-290500-
  SOUTHWEST OHIO

CITY           SKY/WX    TMP DP  RH WIND       PRES   REMARKS
CINC-COVINGTON FAIR      74  72  93 SW5       29.92S
CINC-LUNKEN    FAIR      73  73 100 CALM      29.91F
HAMILTON       FAIR      70  68  93 CALM      29.91S
DAYTON         FAIR      74  66  76 S6        29.92S
WRIGHT-PAT AFB FAIR      74  68  81 SE5       29.91R
DAYTON GENERAL FAIR      73  69  87 S5        29.91S
WILMINGTON     FAIR      71  71 100 SE6       29.92F
$$

OHZ036-037-039>041-045>050-054>059-063>069-073>076-082>088-290500-
  CENTRAL AND SOUTHEAST OHIO

CITY           SKY/WX    TMP DP  RH WIND       PRES   REMARKS
COLUMBUS       FAIR      72  72 100 CALM      29.91S
OSU AIRPORT    FOG       69  69 100 CALM      29.92S VSB 3/4
BOLTON FIELD   FOG       67  67 100 CALM      29.92S VSB 1/2
RICKENBACK AFB   N/A     69  69 100 CALM      29.91S FOG
NEWARK         FOG       70  68  93 CALM      29.92R VSB 3/4
MARION         FAIR      71  67  87 S3        29.92S
LANCASTER      MOCLDY    72  71  97 CALM      29.92S
ZANESVILLE     FOG       74  71  91 SW3       29.92S VSB 1/4
NEW PHILLY     CLOUDY    71  67  87 CALM      29.92S
$$




USA.gov is the U.S. government's official web portal to all federal, state and local government web resources and services.